Regional Weather Roundup
Issued by NWS Bismarck, ND

Home | Current Version | Previous Version | Text Only | Print | Product List | Glossary On
Versions: 1 2 3 4 5 6 7 8 9 10 11 12 13 14 15 16 17 18 19 20 21 22 23 24 25 26 27 28 29 30 31 32 33 34 35 36 37 38 39 40 41 42 43 44 45 46 47 48 49 50
000
ASUS43 KBIS 031110
RWRBIS

NWR BROADCAST TEXT
NATIONAL WEATHER SERVICE BISMARCK ND
600 AM CDT FRI JUL 03 2015

NOTE: "FAIR" INDICATES FEW OR NO CLOUDS BELOW 12,000 FEET WITH NO
SIGNIFICANT WEATHER AND/OR OBSTRUCTIONS TO VISIBILITY.


CITY           SKY/WX    TMP DP  RH WIND       PRES   REMARKS
WILLISTON      MOCLDY    60  58  92 N5        30.01R FOG
MINOT          CLOUDY    60  57  89 SW3       29.98S FOG
MINOT AFB      CLEAR     60  60 100 NW3       29.98S FOG
BISMARCK       CLOUDY    63  61  93 W3        29.99S FOG
DICKINSON      CLEAR     57  54  89 CALM      30.02S FOG
GARRISON         N/A     60  58  92 N3        30.00R
HETTINGER ARPT CLEAR     54  52  93 CALM      30.05S FOG
JAMESTOWN      CLOUDY    64  62  93 NW3       29.96R FOG
BEACH          FAIR      55  55 100 S3        30.05S FOG
CROSBY         FOG       57  57 100 SW6       30.01S VSB 3/4
HARVEY         FOG       59  59 100 W3        29.98R VSB<1/4
HAZEN          FOG       57  55  94 CALM      30.01S VSB 1
LINTON         FOG       59  59 100 SW3       30.00R VSB<1/4
MANDAN         FAIR      61  61 100 NW3       30.01S FOG
OAKES          FOG       59  59 100 S5        29.97R VSB 1
STANLEY        FAIR      59  59 100 N3        30.02S FOG
$$

CITY           SKY/WX    TMP DP  RH WIND       PRES   REMARKS
GRAND FORKS    FOG       61  61 100 W6        29.91R VSB 3/4
GRAND FORKS AF CLEAR     61  60  97 NW6       29.92R FOG
DEVILS LAKE    CLOUDY    61  55  82 CALM      29.95R VSB<1/4
FARGO          CLEAR     63  61  93 SW6       29.92S FOG
CANDO          FOG       55  55 100 NW6       29.97R VSB 1/2
CAVALIER       FOG       61  59  94 W5        29.91R VSB 1/2
GRAFTON        FOG       63  63 100 W7        29.92R VSB 1/2
GWINNER          N/A     63  63 100 SW9       29.97R
LANGDON        FOG       55  55 100 CALM      29.95S VSB<1/4
ROLLA          FAIR      59  59 100 NW8       29.99R FOG
WALHALLA       FAIR      63  63 100 MISG      29.92R FOG
$$

CITY           SKY/WX    TMP DP  RH WIND       PRES   REMARKS
ABERDEEN       PTCLDY    60  59  96 S5        29.98R FOG
MOBRIDGE       CLEAR     61  61 100 CALM      29.98S FOG
BUFFALO          N/A     60  55  83 CALM      30.00S
RAPID CITY     CLEAR     58  55  90 SW3       30.08S
GLASGOW        CLEAR     59  54  83 E9        30.00F HAZE
SIDNEY         PTCLDY    59  55  88 CALM      30.01S
WOLF POINT     CLEAR     59  56  89 CALM      30.01S FOG
GLENDIVE       CLEAR     61  55  82 NW6       30.03S
MILES CITY     CLEAR     58  53  84 NW5       30.02S
BAKER          PTCLDY    58  55  90 CALM      30.05F FOG
$$

CITY           SKY/WX    TMP DP  RH WIND       PRES   REMARKS
BILLINGS       CLEAR     64  50  60 N6        30.07S
GREAT FALLS    CLEAR     65  49  56 S8        30.01S
REGINA         PTCLDY    57  57 100 SE3       30.00S FOG
$$



USA.gov is the U.S. government's official web portal to all federal, state and local government web resources and services.